Location: Jefferson
(30.9666°N, 81.7901°W)
Time: 18:35:38
(UTC+00:00)

ACS3 Solar Sail - Pass Details

Date: 26 September 2024
Orbit: 961 x 1035 km, 97.4° (Epoch: 08 October)

Event Time Altitude Azimuth Distance (km) Brightness Sun altitude
Exits shadow 02:55:05 22° 286° (WNW) 2,083 3.9 -45.0°
Drops below altitude 10° 02:58:41 10° 318° (NW) 2,842 4.8 -45.7°
Sets 03:01:45 0° 332° (NNW) 3,794 5.5 -46.2°
